Location: Clarks Summit,Pa.
(41.5000°N, 75.6000°W)
Time: 23:10:15
(UTC-04:00)

Envisat - Visible Passes

Search period start: 01 October 2022 00:00
Search period end: 11 October 2022 00:00
Orbit: 764 x 765 km, 98.2° (Epoch: 01 October)

Date Brightness Start Highest point End Pass type
(mag) Time Alt. Az. Time Alt. Az. Time Alt. Az.
01 Oct 4.8 04:37:14 10° NE 04:41:38 29° E 04:46:01 10° SSE visible
01 Oct 3.7 06:16:06 10° N 06:20:37 33° WNW 06:25:07 10° SW visible
02 Oct 5.8 04:02:01 10° ENE 04:04:19 13° E 04:06:37 10° ESE visible
02 Oct 2.9 05:38:46 10° N 05:43:51 73° WNW 05:48:53 10° SSW visible
03 Oct 3.8 05:01:55 10° NNE 05:06:52 51° E 05:11:47 10° S visible
04 Oct 5.2 04:25:42 10° NE 04:29:42 23° E 04:33:40 10° SE visible
04 Oct 3.4 06:04:05 10° N 06:08:50 42° WNW 06:13:35 10° SW visible
05 Oct 3.0 05:26:53 10° NNE 05:32:00 88° E 05:37:05 10° SSW visible
06 Oct 4.3 04:50:12 10° NNE 04:54:58 39° E 04:59:42 10° SSE visible
06 Oct 4.0 06:29:38 10° NNW 06:33:45 25° WNW 06:37:50 10° WSW visible
07 Oct 5.5 04:14:19 10° NE 04:17:43 18° E 04:21:07 10° SE visible
07 Oct 3.1 05:52:05 10° N 05:57:03 54° WNW 06:01:57 10° SSW visible
08 Oct 3.2 05:15:03 10° NNE 05:20:08 69° ESE 05:25:11 10° S visible
09 Oct 4.7 04:38:33 10° NE 04:43:02 31° E 04:47:29 10° SSE visible
09 Oct 3.7 06:17:31 10° N 06:21:59 32° WNW 06:26:25 10° SW visible
10 Oct 5.8 04:03:11 10° ENE 04:05:44 14° E 04:08:15 10° ESE visible
10 Oct 2.9 05:40:09 10° N 05:45:13 69° WNW 05:50:15 10° SSW visible
